Вернуться в каталог

COSMOS 1275 DEB

АктивенPO
NORAD 12653·DEBRIS·🇷🇺 Russia

Запущен Jun 4, 1981 с Plesetsk Cosmodrome

Loading…

Ближайшие Пролёты (ближайшие 24 часа)

TLE

СвежийSource: Space-Track

Эпоха: Sep 14, 2026, 09:01 UTC

1 12653U 81053H   26257.37582348  .00000396  00000-0  31418-3 0  9994
2 12653  82.9366  25.0179 0030815  46.0403 338.0713 13.88675407274738

Отслеживайте COSMOS 1275 DEB в реальном времени с AllMySat

Download on the App Store